Culebra, VI

10:04 AM AST on January 16, 2017 (GMT -0400)
King

Weather History for TIST - April, 2012

Change the Weather History Date:

Sunday, April 15, 2012

  Actual Average Record
Temperature  
Mean Temperature 78 °F 81 °F  
Max Temperature 81 °F 87 °F 93 °F (1995)
Min Temperature 75 °F 74 °F 67 °F (1980)
Degree Days  
Heating Degree Days 0 0  
Month to date heating degree days 0 0  
Since 1 July heating degree days 0 0  
Cooling Degree Days 13 16  
Month to date cooling degree days 206 229  
Year to date cooling degree days 1299 1488  
Growing Degree Days 28 (Base 50)    
Moisture  
Dew Point 65 °F    
Average Humidity 64    
Maximum Humidity 74    
Minimum Humidity 54    
Precipitation  
Precipitation T in 0.09 in 0.41 in (1959)
Month to date precipitation 2.16 1.17  
Year to date precipitation 9.10 6.40  
Snow  
Snow 0.00 in 0.00 in - ()
Month to date snowfall 0.0 0.0  
Since 1 July snowfall 0.0 0.0  
Snow Depth 0.00 in    
Sea Level Pressure  
Sea Level Pressure 30.02 in    
Wind  
Wind Speed 18 mph (NNE)    
Max Wind Speed 29 mph    
Max Gust Speed 51 mph    
Visibility 10 miles    
Events      
T = Trace of Precipitation, MM = Missing Value Source: NWS Daily Summary

Daily Weather History Graph

Daily Weather History Graph

Search for Another Location

Airport or City:

Trip Planner

Search our weather history database for the weather conditions in past years. The results will help you decide how hot, cold, wet, or windy it might be!

Date:

Astronomy

Apr. 15, 2012 Rise Set
Actual Time 6:02 AM AST 6:36 PM AST
Civil Twilight 5:40 AM AST 6:59 PM AST
Nautical Twilight 5:14 AM AST 7:25 PM AST
Astronomical Twilight 4:48 AM AST 7:51 PM AST
Moon 2:13 AM AST (4/15) 2:08 PM AST (4/15)
Length of Visible Light 13h 18m
Length of Day
12h 34m
Waning Crescent, 28% of the Moon is Illuminated
Apr 15
Waning Crescent
Apr 21
New
Apr 29
First Quarter
May 5
Full
May 12
Last Quarter

Hourly Weather History & Observations

Time (AST) Temp. Heat Index Dew Point Humidity Pressure Visibility Wind Dir Wind Speed Gust Speed Precip Events Conditions
1:43 AM 75.2 °F - 68.0 °F 78% 29.99 in 10.0 mi NNE 16.1 mph 39.1 mph 0.00 in   Overcast
1:53 AM 75.9 °F - 68.0 °F 76% 29.99 in 10.0 mi North 17.3 mph 34.5 mph 0.00 in   Overcast
2:01 AM 75.2 °F - 68.0 °F 78% 29.98 in 10.0 mi NNE 13.8 mph 39.1 mph N/A   Overcast
2:35 AM 75.2 °F - 68.0 °F 78% 29.98 in 10.0 mi NNE 20.7 mph 34.5 mph N/A   Overcast
2:42 AM 75.2 °F - 68.0 °F 78% 29.98 in 10.0 mi North 19.6 mph 41.4 mph N/A   Overcast
3:19 AM 75.2 °F - 66.2 °F 73% 29.97 in 10.0 mi NE 13.8 mph 41.4 mph 0.00 in   Overcast
3:42 AM 75.2 °F - 66.2 °F 73% 29.97 in 10.0 mi North 9.2 mph 36.8 mph 0.00 in   Overcast
3:53 AM 75.9 °F - 66.0 °F 71% 29.97 in 10.0 mi NNE 12.7 mph 38.0 mph 0.00 in   Overcast
4:07 AM 75.2 °F - 66.2 °F 73% 29.97 in 10.0 mi East 12.7 mph 34.5 mph N/A   Overcast
4:53 AM 75.0 °F - 66.0 °F 73% 29.99 in 10.0 mi Variable 5.8 mph 40.3 mph N/A   Overcast
5:27 AM 75.2 °F - 66.2 °F 73% 30.00 in 10.0 mi NNE 12.7 mph 46.0 mph N/A   Squalls
5:41 AM 75.2 °F - 66.2 °F 73% 30.00 in 10.0 mi NE 19.6 mph 39.1 mph N/A   Overcast
5:53 AM 75.0 °F - 66.0 °F 73% 30.01 in 10.0 mi NNE 19.6 mph 34.5 mph N/A   Overcast
6:07 AM 75.2 °F - 64.4 °F 69% 30.01 in 10.0 mi North 16.1 mph 36.8 mph N/A   Overcast
6:25 AM 75.2 °F - 64.4 °F 69% 30.01 in 10.0 mi NNE 19.6 mph 36.8 mph N/A   Overcast
6:53 AM 75.0 °F - 66.0 °F 73% 30.02 in 10.0 mi NNE 18.4 mph 38.0 mph N/A   Overcast
7:53 AM 77.0 °F - 64.0 °F 64% 30.04 in 10.0 mi North 20.7 mph 40.3 mph N/A   Mostly Cloudy
8:53 AM 77.0 °F - 64.9 °F 66% 30.06 in 10.0 mi NNE 17.3 mph 46.0 mph N/A   Scattered Clouds
9:53 AM 78.1 °F - 64.0 °F 62% 30.07 in 10.0 mi NNE 21.9 mph 26.5 mph N/A   Scattered Clouds
10:53 AM 79.0 °F - 64.9 °F 62% 30.07 in 10.0 mi NNE 20.7 mph 33.4 mph N/A   Mostly Cloudy
11:53 AM 80.1 °F 81.9 °F 64.9 °F 60% 30.06 in 10.0 mi NNE 20.7 mph 32.2 mph N/A   Scattered Clouds
12:53 PM 80.1 °F 81.5 °F 63.0 °F 56% 30.05 in 10.0 mi North 15.0 mph 32.2 mph N/A   Clear
1:53 PM 80.1 °F 81.5 °F 63.0 °F 56% 30.03 in 10.0 mi NNE 15.0 mph 31.1 mph N/A   Clear
2:53 PM 80.1 °F 81.5 °F 63.0 °F 56% 30.02 in 10.0 mi North 18.4 mph 29.9 mph N/A   Clear
3:53 PM 80.1 °F 81.5 °F 63.0 °F 56% 30.01 in 10.0 mi North 18.4 mph 28.8 mph N/A   Partly Cloudy
4:53 PM 78.1 °F - 66.0 °F 66% 30.01 in 9.0 mi NNE 18.4 mph 33.4 mph N/A   Overcast
5:53 PM 77.0 °F - 64.9 °F 66% 30.02 in 10.0 mi NNE 18.4 mph 31.1 mph 0.00 in   Overcast
6:53 PM 75.9 °F - 62.1 °F 62% 30.03 in 10.0 mi North 24.2 mph 33.4 mph N/A   Overcast
7:53 PM 75.9 °F - 63.0 °F 64% 30.05 in 10.0 mi NNE 21.9 mph 28.8 mph N/A   Mostly Cloudy
9:53 PM 75.9 °F - 64.0 °F 67% 30.06 in 10.0 mi North 18.4 mph 28.8 mph N/A   Overcast
10:53 PM 75.9 °F - 64.0 °F 67% 30.06 in 10.0 mi North 27.6 mph 38.0 mph N/A   Overcast
11:53 PM 75.9 °F - 64.0 °F 67% 30.07 in 10.0 mi NNE 18.4 mph 26.5 mph N/A   Overcast